| time (UTC) | temp F | wind direction | speed MPH | gust MPH | rain 1hr in | rain 24hr in | rain mn in | humidity % | barometer mb |
| 20260507163719 | 0 | 21 | 7.0 | 13.0 | 0.00 | 0.00 | 0.00 | 1025.8 | |
| 20260507163219 | 0 | 29 | 6.0 | 11.0 | 0.00 | 0.00 | 0.00 | 1026.2 | |
| 20260507162204 | 0 | 78 | 3.0 | 11.0 | 0.00 | 0.00 | 0.00 | 1026.4 | |
| 20260507161704 | 0 | 45 | 4.0 | 12.0 | 0.00 | 0.00 | 0.00 | 1026.4 | |
| 20260507161204 | 0 | 79 | 5.0 | 12.0 | 0.00 | 0.00 | 0.00 | 1026.5 | |
| 20260507160149 | 0 | 81 | 2.0 | 13.0 | 0.00 | 0.00 | 0.00 | 1026.7 | |
| 20260507155649 | 0 | 103 | 6.0 | 13.0 | 0.00 | 0.00 | 0.00 | 1026.5 | |
| 20260507155148 | 0 | 108 | 5.0 | 14.0 | 0.00 | 0.00 | 0.00 | 1026.8 | |
| 20260507154648 | 0 | 50 | 4.0 | 14.0 | 0.00 | 0.00 | 0.00 | 1026.6 | |
| 20260507154148 | 0 | 16 | 8.0 | 15.0 | 0.00 | 0.00 | 0.00 | 1026.4 | |
| 20260507153647 | 0 | 16 | 7.0 | 15.0 | 0.00 | 0.00 | 0.00 | 1026.4 | |
| 20260507152632 | 0 | 89 | 5.0 | 12.0 | 0.00 | 0.00 | 0.00 | 1026.5 | |
| 20260507151616 | 0 | 70 | 5.0 | 17.0 | 0.00 | 0.00 | 0.00 | 1026.7 | |
| 20260507151116 | 0 | 95 | 6.0 | 17.0 | 0.00 | 0.00 | 0.00 | 1026.6 | |
| 20260507150616 | 0 | 130 | 9.0 | 17.0 | 0.00 | 0.00 | 0.00 | 1026.4 | |
| 20260507150115 | 0 | 129 | 10.0 | 17.0 | 0.00 | 0.00 | 0.00 | 1026.7 | |
| 20260507145059 | 0 | 120 | 8.0 | 17.0 | 0.00 | 0.00 | 0.00 | 1026.6 | |
| 20260507144558 | 0 | 128 | 11.0 | 16.0 | 0.00 | 0.00 | 0.00 | 1026.5 | |
| 20260507144058 | 0 | 130 | 8.0 | 16.0 | 0.00 | 0.00 | 0.00 | 1026.5 | |
| 20260507143557 | 0 | 126 | 7.0 | 15.0 | 0.00 | 0.00 | 0.00 | 1026.7 | |
| 20260507143057 | 0 | 83 | 8.0 | 14.0 | 0.00 | 0.00 | 0.00 | 1026.6 | |
| 20260507142557 | 0 | 120 | 9.0 | 15.0 | 0.00 | 0.00 | 0.00 | 1026.4 | |
| 20260507142057 | 0 | 126 | 9.0 | 16.0 | 0.00 | 0.00 | 0.00 | 1026.7 | |
| 20260507141556 | 0 | 116 | 7.0 | 16.0 | 0.00 | 0.00 | 0.00 | 1026.9 | |
| 20260507140540 | 0 | 116 | 9.0 | 17.0 | 0.00 | 0.00 | 0.00 | 1026.6 | |
| 20260507140040 | 0 | 105 | 7.0 | 15.0 | 0.00 | 0.00 | 0.00 | 1026.6 | |
| 20260507135540 | 0 | 126 | 10.0 | 15.0 | 0.00 | 0.00 | 0.00 | 1026.6 | |
| 20260507135040 | 0 | 122 | 9.0 | 19.0 | 0.00 | 0.00 | 0.00 | 1026.5 | |
| 20260507134540 | 0 | 117 | 13.0 | 19.0 | 0.00 | 0.00 | 0.00 | 1026.6 | |
| 20260507133525 | 0 | 121 | 8.0 | 16.0 | 0.00 | 0.00 | 0.00 | 1026.7 | |
| 20260507133025 | 0 | 92 | 8.0 | 16.0 | 0.00 | 0.00 | 0.00 | 1026.7 | |
| 20260507132525 | 0 | 130 | 11.0 | 17.0 | 0.00 | 0.00 | 0.00 | 1026.8 | |
| 20260507132025 | 0 | 120 | 8.0 | 17.0 | 0.00 | 0.00 | 0.00 | 1026.6 | |
| 20260507131525 | 0 | 102 | 8.0 | 15.0 | 0.00 | 0.00 | 0.00 | 1026.9 | |
| 20260507131025 | 0 | 122 | 10.0 | 16.0 | 0.00 | 0.00 | 0.00 | 1026.6 | |
| 20260507130525 | 0 | 125 | 11.0 | 16.0 | 0.00 | 0.00 | 0.00 | 1026.8 | |
| 20260507125509 | 0 | 126 | 9.0 | 15.0 | 0.00 | 0.00 | 0.00 | 1026.8 | |
| 20260507125011 | 0 | 99 | 6.0 | 17.0 | 0.00 | 0.00 | 0.00 | 1026.6 | |
| 20260507123954 | 0 | 102 | 8.0 | 17.0 | 0.00 | 0.00 | 0.00 | 1027.0 | |
| 20260507123454 | 0 | 109 | 10.0 | 17.0 | 0.00 | 0.00 | 0.00 | 1026.6 | |
| 20260507121924 | 0 | 122 | 8.0 | 13.0 | 0.00 | 0.00 | 0.00 | 1026.5 | |
| 20260507121424 | 0 | 118 | 7.0 | 13.0 | 0.00 | 0.00 | 0.00 | 1026.5 | |
| 20260507120924 | 0 | 116 | 4.0 | 12.0 | 0.00 | 0.00 | 0.00 | 1026.6 | |
| 20260507120424 | 0 | 49 | 3.0 | 12.0 | 0.00 | 0.00 | 0.00 | 1026.5 | |
| 20260507115924 | 0 | 55 | 2.0 | 12.0 | 0.00 | 0.00 | 0.00 | 1026.5 | |
| 20260507114909 | 0 | 86 | 5.0 | 12.0 | 0.00 | 0.00 | 0.00 | 1026.7 | |
| 20260507114409 | 0 | 99 | 4.0 | 12.0 | 0.00 | 0.00 | 0.00 | 1026.7 | |
| 20260507113909 | 0 | 112 | 6.0 | 13.0 | 0.00 | 0.00 | 0.00 | 1026.5 | |
| 20260507113409 | 0 | 72 | 3.0 | 13.0 | 0.00 | 0.00 | 0.00 | 1026.7 | |
| 20260507112354 | 0 | 125 | 6.0 | 11.0 | 0.00 | 0.00 | 0.00 | 1026.6 | |
| 20260507111854 | 0 | 95 | 4.0 | 11.0 | 0.00 | 0.00 | 0.00 | 1026.6 | |
| 20260507111353 | 0 | 70 | 3.0 | 14.0 | 0.00 | 0.00 | 0.00 | 1026.2 | |
| 20260507110853 | 0 | 97 | 6.0 | 14.0 | 0.00 | 0.00 | 0.00 | 1026.3 | |
| 20260507105838 | 0 | 122 | 6.0 | 14.0 | 0.00 | 0.00 | 0.00 | 1026.4 | |
| 20260507105338 | 0 | 115 | 9.0 | 14.0 | 0.00 | 0.00 | 0.00 | 1026.6 | |
| 20260507104838 | 0 | 115 | 8.0 | 12.0 | 0.00 | 0.00 | 0.00 | 1026.4 | |
| 20260507104337 | 0 | 113 | 5.0 | 12.0 | 0.00 | 0.00 | 0.00 | 1026.3 | |
| 20260507103322 | 0 | 99 | 3.0 | 12.0 | 0.00 | 0.00 | 0.00 | 1026.3 | |
| 20260507102821 | 0 | 99 | 5.0 | 12.0 | 0.00 | 0.00 | 0.00 | 1026.1 | |
| 20260507102321 | 0 | 98 | 4.0 | 12.0 | 0.00 | 0.00 | 0.00 | 1026.1 | |
| 20260507101822 | 0 | 81 | 4.0 | 12.0 | 0.00 | 0.00 | 0.00 | 1026.0 | |
| 20260507101321 | 0 | 96 | 2.0 | 12.0 | 0.00 | 0.00 | 0.00 | 1026.2 | |
| 20260507100822 | 0 | 107 | 6.0 | 12.0 | 0.00 | 0.00 | 0.00 | 1026.0 | |
| 20260507100321 | 0 | 111 | 4.0 | 12.0 | 0.00 | 0.00 | 0.00 | 1025.9 | |
| 20260507095821 | 0 | 109 | 4.0 | 12.0 | 0.00 | 0.00 | 0.00 | 1026.1 | |
| 20260507094806 | 0 | 60 | 4.0 | 12.0 | 0.00 | 0.00 | 0.00 | 1026.1 | |
| 20260507094306 | 0 | 84 | 4.0 | 12.0 | 0.00 | 0.00 | 0.00 | 1026.1 | |
| 20260507093807 | 0 | 98 | 4.0 | 14.0 | 0.00 | 0.00 | 0.00 | 1025.9 | |
| 20260507093306 | 0 | 111 | 6.0 | 14.0 | 0.00 | 0.00 | 0.00 | 1025.7 | |
| 20260507092805 | 0 | 105 | 7.0 | 14.0 | 0.00 | 0.00 | 0.00 | 1025.9 | |
| 20260507092307 | 0 | 107 | 5.0 | 12.0 | 0.00 | 0.00 | 0.00 | 1025.5 | |
| 20260507091250 | 0 | 73 | 3.0 | 12.0 | 0.00 | 0.00 | 0.00 | 1025.6 | |
| 20260507090750 | 0 | 79 | 4.0 | 12.0 | 0.00 | 0.00 | 0.00 | 1025.7 | |
| 20260507090250 | 0 | 69 | 4.0 | 12.0 | 0.00 | 0.00 | 0.00 | 1025.5 | |
| 20260507085750 | 0 | 87 | 4.0 | 12.0 | 0.00 | 0.00 | 0.00 | 1025.3 | |
| 20260507085249 | 0 | 97 | 4.0 | 12.0 | 0.00 | 0.00 | 0.00 | 1025.6 | |
| 20260507084233 | 0 | 108 | 7.0 | 12.0 | 0.00 | 0.00 | 0.00 | 1025.6 | |
| 20260507083733 | 0 | 105 | 6.0 | 12.0 | 0.00 | 0.00 | 0.00 | 1025.5 | |
| 20260507083234 | 0 | 101 | 4.0 | 12.0 | 0.00 | 0.00 | 0.00 | 1025.2 | |
| 20260507082734 | 0 | 110 | 7.0 | 12.0 | 0.00 | 0.00 | 0.00 | 1025.6 | |
| 20260507082234 | 0 | 79 | 5.0 | 11.0 | 0.00 | 0.00 | 0.00 | 1025.6 | |
| 20260507081218 | 0 | 76 | 5.0 | 11.0 | 0.00 | 0.00 | 0.00 | 1025.3 | |
| 20260507080718 | 0 | 66 | 3.0 | 11.0 | 0.00 | 0.00 | 0.00 | 1025.2 | |
| 20260507080218 | 0 | 64 | 3.0 | 11.0 | 0.00 | 0.00 | 0.00 | 1025.6 | |
| 20260507075718 | 0 | 81 | 5.0 | 11.0 | 0.00 | 0.00 | 0.00 | 1025.3 | |
| 20260507075217 | 0 | 77 | 2.0 | 11.0 | 0.00 | 0.00 | 0.00 | 1025.4 | |
| 20260507074717 | 0 | 103 | 5.0 | 11.0 | 0.00 | 0.00 | 0.00 | 1025.2 | |
| 20260507074216 | 0 | 71 | 4.0 | 11.0 | 0.00 | 0.00 | 0.00 | 1025.4 | |
| 20260507073716 | 0 | 93 | 3.0 | 11.0 | 0.00 | 0.00 | 0.00 | 1025.6 | |
| 20260507073216 | 0 | 86 | 3.0 | 11.0 | 0.00 | 0.00 | 0.00 | 1025.7 | |
| 20260507072715 | 0 | 87 | 3.0 | 12.0 | 0.00 | 0.00 | 0.00 | 1025.5 | |
| 20260507071659 | 0 | 91 | 5.0 | 12.0 | 0.00 | 0.00 | 0.00 | 1025.4 | |
| 20260507071200 | 0 | 96 | 7.0 | 12.0 | 0.00 | 0.00 | 0.00 | 1025.3 | |
| 20260507070700 | 0 | 100 | 8.0 | 12.0 | 0.00 | 0.00 | 0.00 | 1025.8 | |
| 20260507070200 | 0 | 82 | 5.0 | 12.0 | 0.00 | 0.00 | 0.00 | 1025.5 | |
| 20260507065700 | 0 | 95 | 4.0 | 12.0 | 0.00 | 0.00 | 0.00 | 1025.8 | |
| 20260507065200 | 0 | 104 | 5.0 | 11.0 | 0.00 | 0.00 | 0.00 | 1025.7 | |
| 20260507064700 | 0 | 94 | 5.0 | 11.0 | 0.00 | 0.00 | 0.00 | 1025.6 | |
| 20260507064200 | 0 | 96 | 6.0 | 11.0 | 0.00 | 0.00 | 0.00 | 1025.8 | |
| 20260507063700 | 0 | 75 | 4.0 | 11.0 | 0.00 | 0.00 | 0.00 | 1025.6 | |
| 20260507062644 | 0 | 100 | 5.0 | 11.0 | 0.00 | 0.00 | 0.00 | 1025.8 | |
| 20260507062143 | 0 | 114 | 7.0 | 11.0 | 0.00 | 0.00 | 0.00 | 1025.9 | |
| 20260507061128 | 0 | 101 | 3.0 | 11.0 | 0.00 | 0.00 | 0.00 | 1026.2 | |
| 20260507060628 | 0 | 73 | 2.0 | 11.0 | 0.00 | 0.00 | 0.00 | 1026.2 | |
| 20260507060128 | 0 | 88 | 3.0 | 11.0 | 0.00 | 0.00 | 0.00 | 1026.2 | |
| 20260507055627 | 0 | 92 | 3.0 | 11.0 | 0.00 | 0.00 | 0.00 | 1026.0 | |
| 20260507055127 | 0 | 88 | 3.0 | 11.0 | 0.00 | 0.00 | 0.00 | 1026.3 | |
| 20260507054627 | 0 | 102 | 4.0 | 11.0 | 0.00 | 0.00 | 0.00 | 1026.5 | |
| 20260507054127 | 0 | 102 | 4.0 | 12.0 | 0.00 | 0.00 | 0.00 | 1026.6 | |
| 20260507053627 | 0 | 74 | 4.0 | 12.0 | 0.00 | 0.00 | 0.00 | 1026.2 | |
| 20260507051542 | 0 | 109 | 8.0 | 14.0 | 0.00 | 0.00 | 0.00 | 1026.7 | |
| 20260507051042 | 0 | 95 | 5.0 | 12.0 | 0.00 | 0.00 | 0.00 | 1026.4 | |
| 20260507050542 | 0 | 93 | 6.0 | 12.0 | 0.00 | 0.00 | 0.00 | 1026.6 | |
| 20260507045527 | 0 | 18 | 5.0 | 12.0 | 0.00 | 0.00 | 0.00 | 1026.6 | |
| 20260507045026 | 0 | 86 | 5.0 | 12.0 | 0.00 | 0.00 | 0.00 | 1027.3 | |
| 20260507044526 | 0 | 92 | 4.0 | 12.0 | 0.00 | 0.00 | 0.00 | 1027.2 | |
| 20260507044026 | 0 | 86 | 3.0 | 12.0 | 0.00 | 0.00 | 0.00 | 1026.9 | |
| 20260507043526 | 0 | 90 | 3.0 | 12.0 | 0.00 | 0.00 | 0.00 | 1027.3 | |
| 20260507043026 | 0 | 72 | 6.0 | 12.0 | 0.00 | 0.00 | 0.00 | 1027.0 | |
| 20260507042527 | 0 | 95 | 4.0 | 12.0 | 0.00 | 0.00 | 0.00 | 1027.3 | |
| 20260507042026 | 0 | 57 | 4.0 | 12.0 | 0.00 | 0.00 | 0.00 | 1027.4 | |
| 20260507041526 | 0 | 38 | 3.0 | 13.0 | 0.00 | 0.00 | 0.00 | 1027.2 | |
| 20260507041026 | 0 | 54 | 4.0 | 13.0 | 0.00 | 0.00 | 0.00 | 1027.4 | |
| 20260507035456 | 0 | 66 | 3.0 | 13.0 | 0.00 | 0.00 | 0.00 | 1027.3 | |
| 20260507034956 | 0 | 77 | 3.0 | 13.0 | 0.00 | 0.00 | 0.00 | 1027.6 | |
| 20260507034456 | 0 | 78 | 3.0 | 13.0 | 0.00 | 0.00 | 0.00 | 1027.6 | |
| 20260507033441 | 0 | 88 | 5.0 | 14.0 | 0.00 | 0.00 | 0.00 | 1027.6 | |
| 20260507032426 | 0 | 106 | 9.0 | 14.0 | 0.00 | 0.00 | 0.00 | 1027.7 | |
| 20260507031926 | 0 | 96 | 8.0 | 14.0 | 0.00 | 0.00 | 0.00 | 1027.6 | |
| 20260507031426 | 0 | 103 | 6.0 | 13.0 | 0.00 | 0.00 | 0.00 | 1027.7 | |
| 20260507030926 | 0 | 97 | 6.0 | 13.0 | 0.00 | 0.00 | 0.00 | 1027.6 | |
| 20260507030426 | 0 | 90 | 5.0 | 15.0 | 0.00 | 0.00 | 0.00 | 1027.7 | |
| 20260507025926 | 0 | 94 | 6.0 | 15.0 | 0.00 | 0.00 | 0.00 | 1028.1 | |
| 20260507025426 | 0 | 98 | 6.0 | 15.0 | 0.00 | 0.00 | 0.00 | 1027.9 | |
| 20260507024926 | 0 | 66 | 6.0 | 15.0 | 0.00 | 0.00 | 0.00 | 1027.9 | |
| 20260507024426 | 0 | 109 | 8.0 | 15.0 | 0.00 | 0.00 | 0.00 | 1028.2 | |
| 20260507023926 | 0 | 100 | 5.0 | 12.0 | 0.00 | 0.00 | 0.00 | 1028.1 | |
| 20260507023426 | 0 | 95 | 3.0 | 11.0 | 0.00 | 0.00 | 0.00 | 1027.8 | |
| 20260507022926 | 0 | 37 | 4.0 | 11.0 | 0.00 | 0.00 | 0.00 | 1027.7 | |
| 20260507021910 | 0 | 97 | 3.0 | 11.0 | 0.00 | 0.00 | 0.00 | 1027.9 | |
| 20260507021410 | 0 | 29 | 6.0 | 11.0 | 0.00 | 0.00 | 0.00 | 1027.5 | |
| 20260507020910 | 0 | 78 | 4.0 | 11.0 | 0.00 | 0.00 | 0.00 | 1028.0 | |
| 20260507020410 | 0 | 46 | 4.0 | 11.0 | 0.00 | 0.00 | 0.00 | 1027.7 | |
| 20260507015910 | 0 | 85 | 3.0 | 11.0 | 0.00 | 0.00 | 0.00 | 1027.9 | |
| 20260507015410 | 0 | 79 | 5.0 | 12.0 | 0.00 | 0.00 | 0.00 | 1027.9 | |
| 20260507014910 | 0 | 38 | 6.0 | 12.0 | 0.00 | 0.00 | 0.00 | 1027.6 | |
| 20260507014410 | 0 | 90 | 6.0 | 12.0 | 0.00 | 0.00 | 0.00 | 1027.7 | |
| 20260507013910 | 0 | 79 | 6.0 | 12.0 | 0.00 | 0.00 | 0.00 | 1027.6 | |
| 20260507013410 | 0 | 72 | 6.0 | 12.0 | 0.00 | 0.00 | 0.00 | 1027.6 | |
| 20260507012910 | 0 | 81 | 4.0 | 11.0 | 0.00 | 0.00 | 0.00 | 1027.5 | |
| 20260507012410 | 0 | 61 | 4.0 | 11.0 | 0.00 | 0.00 | 0.00 | 1027.8 | |
| 20260507011355 | 0 | 79 | 4.0 | 11.0 | 0.00 | 0.00 | 0.00 | 1027.9 | |
| 20260507010340 | 0 | 41 | 2.0 | 11.0 | 0.00 | 0.00 | 0.00 | 1027.4 | |
| 20260507005840 | 0 | 58 | 3.0 | 11.0 | 0.00 | 0.00 | 0.00 | 1027.1 | |
| 20260507005340 | 0 | 82 | 4.0 | 11.0 | 0.00 | 0.00 | 0.00 | 1027.2 | |
| 20260507004839 | 0 | 71 | 5.0 | 11.0 | 0.00 | 0.00 | 0.00 | 1027.4 | |
| 20260507004339 | 0 | 91 | 6.0 | 11.0 | 0.00 | 0.00 | 0.00 | 1027.1 | |
| 20260507003839 | 0 | 102 | 3.0 | 11.0 | 0.00 | 0.00 | 0.00 | 1027.4 | |
| 20260507002824 | 0 | 71 | 4.0 | 14.0 | 0.00 | 0.00 | 0.00 | 1027.1 | |
| 20260507002323 | 0 | 87 | 5.0 | 15.0 | 0.00 | 0.00 | 0.00 | 1027.0 | |
| 20260507001822 | 0 | 84 | 6.0 | 15.0 | 0.00 | 0.00 | 0.00 | 1027.0 | |
| 20260507001322 | 0 | 106 | 9.0 | 14.0 | 0.00 | 0.00 | 0.00 | 1026.9 | |
| 20260507000822 | 0 | 101 | 8.0 | 12.0 | 0.00 | 0.00 | 0.00 | 1027.2 | |
| 20260507000322 | 0 | 101 | 5.0 | 12.0 | 0.00 | 0.00 | 0.00 | 1027.0 | |
| 20260506235822 | 0 | 91 | 6.0 | 12.0 | 0.00 | 0.00 | 0.00 | 1026.8 | |
| 20260506235322 | 0 | 85 | 6.0 | 14.0 | 0.00 | 0.00 | 0.00 | 1026.8 | |
| 20260506234305 | 0 | 87 | 5.0 | 14.0 | 0.00 | 0.00 | 0.00 | 1026.6 | |
| 20260506233805 | 0 | 121 | 7.0 | 14.0 | 0.00 | 0.00 | 0.00 | 1026.4 | |
| 20260506233305 | 0 | 65 | 4.0 | 14.0 | 0.00 | 0.00 | 0.00 | 1026.5 | |
| 20260506232805 | 0 | 87 | 7.0 | 14.0 | 0.00 | 0.00 | 0.00 | 1026.4 | |
| 20260506232306 | 0 | 96 | 6.0 | 14.0 | 0.00 | 0.00 | 0.00 | 1026.4 | |
| 20260506231805 | 0 | 102 | 7.0 | 13.0 | 0.00 | 0.00 | 0.00 | 1026.1 | |
| 20260506231305 | 0 | 112 | 6.0 | 13.0 | 0.00 | 0.00 | 0.00 | 1026.2 | |
| 20260506230804 | 0 | 85 | 5.0 | 13.0 | 0.00 | 0.00 | 0.00 | 1026.1 | |
| 20260506230304 | 0 | 84 | 7.0 | 12.0 | 0.00 | 0.00 | 0.00 | 1026.3 | |
| 20260506225803 | 0 | 114 | 9.0 | 12.0 | 0.00 | 0.00 | 0.00 | 1026.3 | |
| 20260506225305 | 0 | 105 | 8.0 | 12.0 | 0.00 | 0.00 | 0.00 | 1026.2 | |
| 20260506224247 | 0 | 75 | 5.0 | 13.0 | 0.00 | 0.00 | 0.00 | 1025.8 | |
| 20260506223747 | 0 | 108 | 8.0 | 13.0 | 0.00 | 0.00 | 0.00 | 1025.7 | |
| 20260506223247 | 0 | 91 | 6.0 | 13.0 | 0.00 | 0.00 | 0.00 | 1025.7 | |
| 20260506222232 | 0 | 80 | 7.0 | 13.0 | 0.00 | 0.00 | 0.00 | 1025.8 | |
| 20260506221732 | 0 | 97 | 8.0 | 15.0 | 0.00 | 0.00 | 0.00 | 1025.5 | |
| 20260506220716 | 0 | 52 | 6.0 | 16.0 | 0.00 | 0.00 | 0.00 | 1025.5 | |
| 20260506215144 | 0 | 102 | 7.0 | 14.0 | 0.00 | 0.00 | 0.00 | 1025.8 | |
| 20260506214644 | 0 | 83 | 5.0 | 14.0 | 0.00 | 0.00 | 0.00 | 1025.4 | |
| 20260506213627 | 0 | 103 | 8.0 | 17.0 | 0.00 | 0.00 | 0.00 | 1025.3 | |
| 20260506213127 | 0 | 105 | 7.0 | 13.0 | 0.00 | 0.00 | 0.00 | 1025.5 | |
| 20260506212111 | 0 | 87 | 8.0 | 16.0 | 0.00 | 0.00 | 0.00 | 1025.3 | |
| 20260506211611 | 0 | 86 | 6.0 | 19.0 | 0.00 | 0.00 | 0.00 | 1025.5 | |
| 20260506211111 | 0 | 88 | 8.0 | 19.0 | 0.00 | 0.00 | 0.00 | 1025.2 | |
| 20260506210056 | 0 | 126 | 9.0 | 15.0 | 0.00 | 0.00 | 0.00 | 1025.3 | |
| 20260506205556 | 0 | 110 | 9.0 | 16.0 | 0.00 | 0.00 | 0.00 | 1025.3 | |
| 20260506205056 | 0 | 119 | 9.0 | 20.0 | 0.00 | 0.00 | 0.00 | 1025.5 | |
| 20260506204556 | 0 | 117 | 10.0 | 16.0 | 0.00 | 0.00 | 0.00 | 1025.3 | |
| 20260506204056 | 0 | 109 | 10.0 | 17.0 | 0.00 | 0.00 | 0.00 | 1025.1 | |
| 20260506203556 | 0 | 104 | 6.0 | 17.0 | 0.00 | 0.00 | 0.00 | 1025.1 | |
| 20260506203056 | 0 | 90 | 8.0 | 15.0 | 0.00 | 0.00 | 0.00 | 1025.1 | |
| 20260506202556 | 0 | 111 | 8.0 | 15.0 | 0.00 | 0.00 | 0.00 | 1025.1 | |
| 20260506202056 | 0 | 111 | 8.0 | 19.0 | 0.00 | 0.00 | 0.00 | 1025.2 | |
| 20260506201556 | 0 | 113 | 8.0 | 19.0 | 0.00 | 0.00 | 0.00 | 1025.2 | |
| 20260506201057 | 0 | 123 | 9.0 | 19.0 | 0.00 | 0.00 | 0.00 | 1025.3 | |
| 20260506200556 | 0 | 112 | 11.0 | 19.0 | 0.00 | 0.00 | 0.00 | 1025.3 | |
| 20260506200057 | 0 | 114 | 12.0 | 17.0 | 0.00 | 0.00 | 0.00 | 1025.2 | |
| 20260506195556 | 0 | 105 | 8.0 | 16.0 | 0.00 | 0.00 | 0.00 | 1025.5 | |
| 20260506194540 | 0 | 104 | 10.0 | 17.0 | 0.00 | 0.00 | 0.00 | 1025.4 | |
| 20260506193525 | 0 | 108 | 11.0 | 19.0 | 0.00 | 0.00 | 0.00 | 1025.6 | |
| 20260506193025 | 0 | 108 | 8.0 | 19.0 | 0.00 | 0.00 | 0.00 | 1025.6 | |
| 20260506192525 | 0 | 114 | 10.0 | 16.0 | 0.00 | 0.00 | 0.00 | 1025.6 | |
| 20260506192026 | 0 | 108 | 8.0 | 16.0 | 0.00 | 0.00 | 0.00 | 1025.6 | |
| 20260506191526 | 0 | 119 | 9.0 | 16.0 | 0.00 | 0.00 | 0.00 | 1025.7 | |
| 20260506191025 | 0 | 120 | 10.0 | 15.0 | 0.00 | 0.00 | 0.00 | 1025.7 | |
| 20260506190524 | 0 | 113 | 9.0 | 16.0 | 0.00 | 0.00 | 0.00 | 1025.7 | |
| 20260506190024 | 0 | 97 | 9.0 | 16.0 | 0.00 | 0.00 | 0.00 | 1025.7 | |
| 20260506185524 | 0 | 107 | 7.0 | 16.0 | 0.00 | 0.00 | 0.00 | 1025.7 | |
| 20260506185024 | 0 | 108 | 11.0 | 16.0 | 0.00 | 0.00 | 0.00 | 1026.0 | |
| 20260506184525 | 0 | 111 | 10.0 | 15.0 | 0.00 | 0.00 | 0.00 | 1026.0 | |
| 20260506184025 | 0 | 101 | 8.0 | 17.0 | 0.00 | 0.00 | 0.00 | 1026.4 | |
| 20260506182454 | 0 | 129 | 12.0 | 20.0 | 0.00 | 0.00 | 0.00 | 1026.7 | |
| 20260506181954 | 0 | 124 | 11.0 | 19.0 | 0.00 | 0.00 | 0.00 | 1026.1 | |
| 20260506181453 | 0 | 122 | 10.0 | 16.0 | 0.00 | 0.00 | 0.00 | 1026.6 | |
| 20260506180954 | 0 | 123 | 11.0 | 21.0 | 0.00 | 0.00 | 0.00 | 1026.5 | |
| 20260506180454 | 0 | 117 | 10.0 | 21.0 | 0.00 | 0.00 | 0.00 | 1026.3 | |
| 20260506175953 | 0 | 126 | 12.0 | 19.0 | 0.00 | 0.00 | 0.00 | 1026.4 | |
| 20260506175454 | 0 | 126 | 13.0 | 19.0 | 0.00 | 0.00 | 0.00 | 1026.8 | |
| 20260506174954 | 0 | 130 | 11.0 | 16.0 | 0.00 | 0.00 | 0.00 | 1026.4 | |
| 20260506174454 | 0 | 122 | 11.0 | 19.0 | 0.00 | 0.00 | 0.00 | 1026.8 | |
| 20260506173954 | 0 | 131 | 11.0 | 19.0 | 0.00 | 0.00 | 0.00 | 1026.4 | |
| 20260506173454 | 0 | 122 | 12.0 | 20.0 | 0.00 | 0.00 | 0.00 | 1026.8 | |
| 20260506172953 | 0 | 115 | 14.0 | 20.0 | 0.00 | 0.00 | 0.00 | 1027.0 | |
| 20260506172454 | 0 | 126 | 13.0 | 23.0 | 0.00 | 0.00 | 0.00 | 1026.9 | |
| 20260506171954 | 0 | 123 | 10.0 | 19.0 | 0.00 | 0.00 | 0.00 | 1027.2 | |
| 20260506171453 | 0 | 114 | 11.0 | 16.0 | 0.00 | 0.00 | 0.00 | 1027.2 | |
| 20260506170953 | 0 | 119 | 11.0 | 15.0 | 0.00 | 0.00 | 0.00 | 1027.0 | |
| 20260506165937 | 0 | 125 | 8.0 | 19.0 | 0.00 | 0.00 | 0.00 | 1027.3 | |
| 20260506165436 | 0 | 119 | 9.0 | 19.0 | 0.00 | 0.00 | 0.00 | 1027.4 | |
| 20260506164936 | 0 | 100 | 9.0 | 17.0 | 0.00 | 0.00 | 0.00 | 1027.4 | |
| 20260506164436 | 0 | 133 | 11.0 | 16.0 | 0.00 | 0.00 | 0.00 | 1027.7 |